Home > Weather > Barranquilla > Past weeks

Flag for Colombia Past Weather in Barranquilla, Colombia — Yesterday and Last 2 Weeks

Now
90 °F

Scattered clouds.


Feels Like: 100 °F
Forecast: N/A
Wind: 15 mph from Northeast

Location: Barranquilla / Ernestocortissoz

Current Time: Jul 26, 2016 at 5:04:24 PM

Latest Report: Jul 26, 2016 at 4:00 PM


Visibility: N/A

Pressure: 29.75 "Hg

Humidity: 63%

Dew Point: 75 °F

Location of BarranquillaLocation

Past Weather in Barranquilla — Graph

°F

Barranquilla Temperature Yesterday

Maximum temperature yesterday: 91 °F (at 1:00 PM)
Minimum temperature yesterday: 77 °F (at 6:00 AM)
Average temperature yesterday: 83 °F

High & Low Weather Summary for the Past Weeks

 TemperatureHumidityPressure
High93 °F (Jul 12, 1:00 PM)100% (Jul 15, 7:00 AM)29.94 "Hg (Jul 15, 7:00 AM)
Low73 °F (Jul 15, 6:00 PM)56% (Jul 13, 2:00 PM)29.75 "Hg (Jul 26, 4:00 PM)
Average83 °F80%29.85 "Hg
* Reported Jul 11 4:00 PM — Jul 26 4:00 PM, Barranquilla, Weather by CustomWeather, © 2016

Note: Actual official high and low records may vary slightly from our data, if they occured in-between our weather recording intervals... More about our weather records

Advertising

Barranquilla Weather History for the Previous 24 Hours

Scroll right to see more
 ConditionsComfort  
Time TempWeatherWind HumidityBarometerVisibility
4:00 PM
Tue, Jul 26
90 °FScattered clouds.15 mph63%29.75 "HgN/A
3:00 PM91 °FPassing clouds.14 mph59%29.76 "HgN/A
2:00 PM91 °FPassing clouds.12 mph59%29.77 "HgN/A
1:00 PM91 °FScattered clouds.18 mph63%29.80 "HgN/A
12:00 PM88 °FScattered clouds.12 mph66%29.82 "HgN/A
11:00 AM93 °FScattered clouds.7 mph56%29.83 "HgN/A
10:00 AM90 °FScattered clouds.5 mph63%29.84 "HgN/A
9:00 AM86 °FScattered clouds.8 mph75%29.84 "HgN/A
8:00 AM84 °FScattered clouds.6 mph84%29.84 "HgN/A
7:00 AM81 °FPassing clouds.No wind89%29.82 "HgN/A
6:00 AM79 °FFog.No wind94%29.80 "Hg5 mi
5:00 AM79 °FFog.3 mph94%29.79 "Hg4 mi
4:00 AM77 °FPassing clouds.3 mph100%29.85 "HgN/A
3:00 AM77 °FPassing clouds.3 mph94%29.77 "HgN/A
2:00 AM79 °FPassing clouds.No wind94%29.77 "HgN/A
1:00 AM81 °FPassing clouds.3 mph89%29.79 "HgN/A
12:00 AM81 °FPassing clouds.9 mph89%29.80 "HgN/A
11:00 PM
Mon, Jul 25
82 °FPassing clouds.6 mph84%29.82 "HgN/A
10:00 PM82 °FPassing clouds.10 mph84%29.83 "HgN/A
9:00 PM82 °FPassing clouds.3 mph84%29.82 "HgN/A
8:00 PM82 °FPassing clouds.7 mph84%29.82 "HgN/A
7:00 PM82 °FPassing clouds.5 mph84%29.84 "HgN/A
6:00 PM84 °FScattered clouds.7 mph74%29.80 "HgN/A
5:00 PM86 °FScattered clouds.13 mph70%29.79 "HgN/A
Weather by CustomWeather, © 2016

See weather overviewHow to use our weather pages